WetterOnline ( http://www.wetteronline.de )

Wetter aktuell Denkendorf

Aktuelles Wetter: Gelbelsee (539m)

6-stündlich | Neueste Meldungen
Ortszeit Temperatur Wetter
Sa, 23.09. 2:00 9.3° C bewölkt
Fr, 22.09. 20:00 11.0° C leicht bewölkt
Fr, 22.09. 14:00 14.3° C wolkig
Fr, 22.09. 8:00 7.2° C wolkig
Ortszeit Temperatur Wetter
Sa, 23.09. 7:00 8.0° C leicht bewölkt
Sa, 23.09. 6:30 7.7° C leicht bewölkt
Sa, 23.09. 6:00 8.5° C bewölkt
Sa, 23.09. 5:30 9.0° C bewölkt
Sa, 23.09. 5:00 8.6° C leicht bewölkt
Sa, 23.09. 4:30 9.3° C wolkig
Ortszeit Relative Feuchte Sichtweite
Sa, 23.09. 2:00 87% 11 km
Fr, 22.09. 20:00 75% 40 km
Fr, 22.09. 14:00 58% 40 km
Fr, 22.09. 8:00 95% 6 km
Ortszeit Relative Feuchte Sichtweite
Sa, 23.09. 7:00 96% 6 km
Sa, 23.09. 6:30 96% 6 km
Sa, 23.09. 6:00 95% 6 km
Sa, 23.09. 5:30 91% 8 km
Sa, 23.09. 5:00 92% 8 km
Sa, 23.09. 4:30 89% 9 km
Ortszeit Niederschlagsmenge Niederschlagsart
Sa, 23.09. 2:00 0.0 l/m2 in 6 Std. -
Fr, 22.09. 20:00 0.1 l/m2 in 12 Std. -
Fr, 22.09. 14:00 0.1 l/m2 in 6 Std. Regen
Fr, 22.09. 8:00 0.0 l/m2 in 12 Std. -
Ortszeit Niederschlagsmenge Niederschlagsart
Sa, 23.09. 7:00 0.0 l/m2 in 1 Std. -
Sa, 23.09. 6:30 keine Meldung -
Sa, 23.09. 6:00 0.0 l/m2 in 1 Std. -
Sa, 23.09. 5:30 keine Meldung -
Sa, 23.09. 5:00 0.0 l/m2 in 1 Std. -
Sa, 23.09. 4:30 keine Meldung -
Ortszeit Stärke Spitze Richtung
km/h Bft. km/h Grad Sektor
Sa, 23.09. 2:00 0 0 7 - -
Fr, 22.09. 20:00 0 0 22 - -
Fr, 22.09. 14:00 7 2 14 150° SO
Fr, 22.09. 8:00 0 0 7 - -
Ortszeit Stärke Spitze Richtung
km/h Bft. km/h Grad Sektor
Sa, 23.09. 7:00 0 0 7 - -
Sa, 23.09. 6:30 0 0 7 - -
Sa, 23.09. 6:00 0 0 7 - -
Sa, 23.09. 5:30 4 1 7 230° SW
Sa, 23.09. 5:00 0 0 4 - -
Sa, 23.09. 4:30 0 0 4 - -
Ortszeit Untergrenze Bedeckung Gattung
total tief tief mittel hoch
Sa, 23.09. 2:00 1140 m 8/8 5/8 - - -
Fr, 22.09. 20:00 7200 m 3/8 0/8 - - -
Fr, 22.09. 14:00 3000 m 6/8 6/8 - - -
Fr, 22.09. 8:00 3300 m 8/8 1/8 - - -
Ortszeit Bedeckungsgrad in Achtel und Wolkenuntergrenze
Sa, 23.09. 7:00 4(3000m)
Sa, 23.09. 6:30 2(2700m) 4(3300m)
Sa, 23.09. 6:00 7(3300m)
Sa, 23.09. 5:30 7(3300m)
Sa, 23.09. 5:00 2(1080m)
Sa, 23.09. 4:30 6(3900m)
Ortszeit Luftdruck NN (hPa) Tendenz (hPa in 3 Std.)
Sa, 23.09. 2:00 1024 + 0,5
Fr, 22.09. 20:00 1022 + 0,4
Fr, 22.09. 14:00 1021 + 0,1
Fr, 22.09. 8:00 1022 + 0,1
Ortszeit Luftdruck NN (hPa) Tendenz (hPa in 3 Std.)
Sa, 23.09. 7:00 1023 - 0,5
Sa, 23.09. 6:30 1023 - 0,6
Sa, 23.09. 6:00 1023 - 0,8
Sa, 23.09. 5:30 1023 - 0,7
Sa, 23.09. 5:00 1023 - 0,8
Sa, 23.09. 4:30 1024 - 0,5
Ortszeit Schneehöhe (cm)
Sa, 23.09. 2:00 -
Fr, 22.09. 20:00 -
Fr, 22.09. 14:00 -
Fr, 22.09. 8:00 -
Ortszeit Schneehöhe (cm)
Sa, 23.09. 7:00 -
Sa, 23.09. 6:30 -
Sa, 23.09. 6:00 -
Sa, 23.09. 5:30 -
Sa, 23.09. 5:00 -
Sa, 23.09. 4:30 -
Link zu dieser Seite / Seite empfehlen

Das Wetter in ...